Location: Cincinnati Observatory Center
(39.1389°N, 84.4225°W)
Time: 12:11:52
(UTC-04:00)

Amateur Radio Satellites - All Passes

Search period start: 30 July 2015 11:41
Search period end: 31 July 2015 11:41
Location: Cincinnati Observatory Center, 39.1389°N, 84.4225°W

Satellite Date Start Highest point End Downlink Frequencies (MHz)
Time Altitude Azimuth
BEESAT 2 30 Jul 11:43:05 11:44:12 11° 251° (WSW) 11:45:04 435.950
AISAT 30 Jul 11:44:13 11:47:01 17° 92° (E) 11:49:59 437.250
COMPASS 1 30 Jul 11:45:18 11:48:05 17° 292° (WNW) 11:50:43 437.405
O/OREOS (USA 219) 30 Jul 11:46:42 11:49:50 18° 56° (NE) 11:53:06 437.305
POPSAT HIP 1 30 Jul 11:49:13 11:53:20 60° 75° (ENE) 11:57:30 437.405
Oscar 11 30 Jul 11:50:59 11:55:03 38° 288° (WNW) 11:59:03 145.826/435.025
UKube-1 30 Jul 11:52:04 11:55:53 31° 97° (E) 11:59:44 .
TIGRISAT 30 Jul 11:55:12 11:59:19 44° 262° (W) 12:03:32 435.000
ANTELSAT 30 Jul 11:56:05 12:00:11 41° 263° (W) 12:04:22 437.575/2403.000
QB50P2 30 Jul 11:56:15 12:00:26 76° 76° (ENE) 12:04:40 145.880/145.840
SEEDS 30 Jul 11:58:39 11:59:24 10° 295° (WNW) 11:59:55 437.485
Cosmos 2491 30 Jul 11:59:55 12:05:16 19° 81° (E) 12:11:07 435.465 / 435.565
HO-68 30 Jul 12:00:29 12:06:02 24° 300° (WNW) 12:11:22 435.675
BUGSAT 1 30 Jul 12:04:51 12:08:49 55° 75° (ENE) 12:12:47 437.445
CUBEBUG 1 30 Jul 12:05:19 12:07:51 16° 91° (E) 12:10:34 437.445
HUMSAT D 30 Jul 12:15:45 12:20:06 81° 282° (WNW) 12:24:25 437.325/437.525
DX 1 30 Jul 12:16:29 12:20:48 66° 102° (ESE) 12:25:07 434.975-435.025
VELOX 1 30 Jul 12:22:53 12:27:05 43° 99° (E) 12:31:18 145.980
DUCHIFAT 1 30 Jul 12:23:24 12:27:30 54° 260° (W) 12:31:37 145.980
QB50P1 30 Jul 12:25:03 12:29:08 49° 261° (W) 12:33:14 145.935-145.965
ESTCUBE 1 30 Jul 12:26:13 12:30:18 33° 97° (E) 12:34:21 437.505/2401.250
NANOSAT C BR1 30 Jul 12:27:12 12:31:15 47° 261° (W) 12:35:19 145.865
DELFI C3 30 Jul 12:29:17 12:32:17 19° 291° (WNW) 12:35:09 145.870
50 SAT 30 Jul 12:35:40 12:39:39 81° 100° (E) 12:43:38 437.505
ZACube-1 30 Jul 12:48:43 12:51:40 17° 293° (WNW) 12:54:28 437.345
SPROUT 30 Jul 12:49:42 12:51:55 14° 90° (E) 12:54:20 437.525
UNISAT 6 30 Jul 12:50:53 12:52:17 11° 272° (W) 12:53:25 437.425
POLYITAN 1 30 Jul 13:08:46 13:11:30 16° 268° (W) 13:14:06 437.675
TISAT 1 30 Jul 13:09:51 13:11:59 14° 91° (E) 13:14:21 437.305
Cosmos 2504 30 Jul 13:10:56 13:14:01 13° 58° (ENE) 13:17:49 435.465 / 435.565
Oscar 19 30 Jul 13:12:58 13:16:40 21° 66° (ENE) 13:20:31 437.125/150
AIST 1 30 Jul 13:14:27 13:18:49 73° 95° (E) 13:23:09
AISAT 30 Jul 13:19:40 13:23:49 40° 288° (WNW) 13:27:56 437.250
YUBILEINY 30 Jul 13:21:45 13:30:30 70° 267° (W) 13:39:14 435.215
O/OREOS (USA 219) 30 Jul 13:25:09 13:29:32 44° 254° (WSW) 13:33:53 437.305
UKube-1 30 Jul 13:28:30 13:31:53 22° 292° (WNW) 13:35:08 .
POPSAT HIP 1 30 Jul 13:29:04 13:29:41 10° 272° (W) 13:30:01 437.405
CUBEBUG 1 30 Jul 13:40:22 13:44:27 42° 288° (WNW) 13:48:31 437.445
BUGSAT 1 30 Jul 13:43:51 13:44:42 10° 271° (W) 13:45:17 437.445
Cosmos 2491 30 Jul 13:52:25 14:01:13 82° 278° (W) 14:10:01 435.465 / 435.565
DX 1 30 Jul 13:55:05 13:56:34 11° 296° (WNW) 13:57:48 434.975-435.025
Gurwin Techsat 1B 30 Jul 13:56:19 13:59:32 17° 64° (ENE) 14:02:59 435.225
VELOX 1 30 Jul 14:00:27 14:03:19 17° 294° (WNW) 14:06:02 145.980
ESTCUBE 1 30 Jul 14:03:29 14:06:58 22° 292° (WNW) 14:10:21 437.505/2401.250
SPROUT 30 Jul 14:24:10 14:28:18 46° 287° (WNW) 14:32:24 437.525
BEESAT 30 Jul 14:25:10 14:28:05 17° 91° (E) 14:31:13 436.000
ITAMSAT 1 30 Jul 14:28:42 14:33:08 30° 68° (ENE) 14:37:41 435.822/435.867
JAS-2 30 Jul 14:33:59 14:37:34 17° 58° (ENE) 14:41:41 435.910
TISAT 1 30 Jul 14:44:01 14:48:02 44° 287° (WNW) 14:52:02 437.305
SWISSCUBE 30 Jul 14:44:30 14:48:37 29° 95° (E) 14:52:47 437.505
Oscar 19 30 Jul 14:50:51 14:55:44 45° 261° (W) 15:00:39 437.125/150
Cosmos 2504 30 Jul 14:59:41 15:08:03 69° 80° (E) 15:16:39 435.465 / 435.565
ITUPSAT 1 30 Jul 15:04:13 15:08:45 41° 98° (E) 15:13:15 437.325
AO-7 30 Jul 15:18:01 15:24:45 29° 59° (ENE) 15:31:41 29.400- 29.500
YUBILEINY 30 Jul 15:23:15 15:25:56 11° 284° (WNW) 15:27:49 435.215
Gurwin Techsat 1B 30 Jul 15:33:48 15:39:03 62° 259° (W) 15:44:21 435.225
KKS-1 30 Jul 15:48:25 15:51:38 20° 93° (E) 15:54:58 437.445
HORYU 2 30 Jul 15:51:27 15:54:55 23° 68° (ENE) 15:58:30 437.375
DANDE 30 Jul 15:52:53 15:55:29 18° 77° (ENE) 15:58:44 436.750
Cosmos 2491 30 Jul 15:54:33 15:59:46 16° 301° (WNW) 16:04:26 435.465 / 435.565
BEESAT 30 Jul 16:01:39 16:06:15 48° 288° (WNW) 16:10:49 436.000
ITAMSAT 1 30 Jul 16:07:55 16:12:35 32° 264° (W) 16:17:12 435.822/435.867
JAS-2 30 Jul 16:15:48 16:21:42 82° 257° (WSW) 16:28:30 435.910
SWISSCUBE 30 Jul 16:22:21 16:26:25 28° 291° (WNW) 16:30:25 437.505
CUSAT 1 30 Jul 16:25:36 16:29:39 77° 81° (E) 16:35:05 437.405
ITUPSAT 1 30 Jul 16:42:50 16:46:22 20° 294° (WNW) 16:49:45 437.325
Cosmos 2504 30 Jul 16:53:09 16:59:40 25° 276° (W) 17:05:59 435.465 / 435.565
STARS 30 Jul 17:01:49 17:06:16 78° 102° (ESE) 17:10:42 437.465
AO-7 30 Jul 17:08:44 17:17:02 65° 256° (WSW) 17:25:22 29.400- 29.500
KKS-1 30 Jul 17:24:18 17:28:23 35° 289° (WNW) 17:32:26 437.445
HORYU 2 30 Jul 17:27:28 17:31:25 31° 264° (W) 17:35:21 437.375
DANDE 30 Jul 17:35:15 17:38:31 27° 262° (W) 17:42:33 436.750
MOZHAYETS 4 30 Jul 18:01:09 18:05:46 67° 101° (E) 18:10:21
GONETS M04 30 Jul 18:02:41 18:11:09 54° 76° (ENE) 18:19:41
Cubesat XI-IV 30 Jul 18:05:17 18:09:24 24° 66° (ENE) 18:13:38 437.490
JAS-2 30 Jul 18:07:03 18:08:18 10° 279° (W) 18:09:00 435.910
SO-50 30 Jul 18:21:25 18:24:43 18° 41° (NE) 18:28:07 436.795
PCSat 30 Jul 18:42:49 18:47:10 24° 49° (NE) 18:51:36 145.827
CUTE-I 30 Jul 19:00:19 19:05:40 74° 75° (ENE) 19:11:02 437.470
Cosmos 2499 30 Jul 19:02:46 19:10:20 33° 70° (ENE) 19:18:13 435.465 / 435.565
VERMONT LUNAR 30 Jul 19:17:48 19:20:17 21° 151° (SSE) 19:22:48 437.305
STRAND 1 30 Jul 19:38:16 19:41:30 17° 91° (E) 19:44:56 437.568
MOZHAYETS 4 30 Jul 19:40:27 19:42:29 12° 296° (WNW) 19:44:17
BRITE-PL 30 Jul 19:41:50 19:44:59 20° 70° (ENE) 19:48:09 437.365/2234.400
Cubesat XI-IV 30 Jul 19:44:08 19:49:15 44° 262° (W) 19:54:22 437.490
CUBESAT XI-V 30 Jul 19:50:13 19:54:51 80° 101° (E) 19:59:26 437.345
GONETS M04 30 Jul 20:00:14 20:07:39 31° 275° (W) 20:14:50
SO-50 30 Jul 20:00:54 20:05:50 71° 241° (WSW) 20:10:38 436.795
GOMX 1 30 Jul 20:01:55 20:04:47 18° 69° (ENE) 20:07:43 467.674
PRISM 30 Jul 20:05:46 20:09:05 23° 95° (E) 20:12:25 437.425
PCSat 30 Jul 20:25:39 20:30:53 49° 247° (WSW) 20:36:04 145.827
HO-68 30 Jul 20:39:00 20:45:38 45° 67° (ENE) 20:52:22 435.675
PHONESAT 2.4 30 Jul 20:40:54 20:42:59 15° 147° (SSE) 20:45:09 2401.200-2431.200
CUTE-I 30 Jul 20:43:52 20:46:24 13° 272° (W) 20:48:36 437.470
VERMONT LUNAR 30 Jul 20:53:35 20:56:47 82° 163° (SSE) 20:59:58 437.305
Cosmos 2499 30 Jul 20:55:27 21:03:55 55° 269° (W) 21:12:26 435.465 / 435.565
COMPASS 1 30 Jul 20:59:09 21:02:30 24° 70° (ENE) 21:05:57 437.405
CUBEBUG 2 30 Jul 21:05:34 21:06:17 10° 64° (ENE) 21:07:16 437.445
CUTE 1.7 + AOD 2 30 Jul 21:10:35 21:14:43 51° 75° (ENE) 21:18:55 437.475
SEEDS 30 Jul 21:10:39 21:14:37 41° 73° (ENE) 21:18:40 437.485
Oscar 11 30 Jul 21:10:46 21:12:39 13° 65° (ENE) 21:14:43 145.826/435.025
STRAND 1 30 Jul 21:16:08 21:21:05 51° 288° (WNW) 21:25:59 437.568
CANX-2 30 Jul 21:18:34 21:22:49 73° 76° (ENE) 21:27:07 2200.000
BRITE-PL 30 Jul 21:19:20 21:23:25 33° 263° (W) 21:27:16 437.365/2234.400
CUBESAT XI-V 30 Jul 21:30:51 21:31:42 10° 297° (WNW) 21:32:16 437.345
DOVE 4 30 Jul 21:35:04 21:39:14 64° 259° (W) 21:43:21 437.250
GOMX 1 30 Jul 21:38:50 21:42:46 34° 263° (W) 21:46:34 467.674
DELFI C3 30 Jul 21:40:39 21:43:15 17° 68° (ENE) 21:46:00 145.870
PRISM 30 Jul 21:41:02 21:44:29 25° 291° (WNW) 21:47:50 437.425
AAUSAT CUBESAT 2 30 Jul 21:41:11 21:45:19 62° 75° (ENE) 21:49:29 437.432
CINEMA 3 30 Jul 21:56:31 22:00:39 88° 257° (WSW) 22:04:52 145.822/145.860
ZACube-1 30 Jul 22:06:34 22:10:13 30° 71° (ENE) 22:13:58 437.345
RS-15 30 Jul 22:09:03 22:19:21 53° 112° (ESE) 22:30:04 29.354- 29.394
PHONESAT 2.4 30 Jul 22:17:06 22:20:34 61° 161° (SSE) 22:24:03 2401.200-2431.200
ISS 30 Jul 22:17:29 22:20:39 52° 138° (SE) 22:23:50 145.825
UWE-3 30 Jul 22:26:11 22:30:19 69° 76° (ENE) 22:34:33 435.000/436.395/437.385
HO-68 30 Jul 22:27:07 22:33:31 34° 264° (W) 22:39:49 435.675
FUNcube-1 30 Jul 22:28:33 22:32:35 53° 74° (ENE) 22:36:46 145.935
VERMONT LUNAR 30 Jul 22:30:26 22:33:36 66° 2° (N) 22:36:45 437.305
COMPASS 1 30 Jul 22:34:29 22:38:04 26° 265° (W) 22:41:38 437.405
CUBEBUG 2 30 Jul 22:38:20 22:42:28 65° 259° (W) 22:46:41 437.445
M-CUBED/EXP-1 PRIME 30 Jul 22:40:00 22:44:12 30° 100° (E) 22:48:21 437.505
AISAT 30 Jul 22:41:48 22:44:05 14° 65° (ENE) 22:46:32 437.250
Oscar 11 30 Jul 22:44:07 22:48:23 57° 260° (W) 22:52:41 145.826/435.025
UKube-1 30 Jul 22:46:08 22:49:33 24° 69° (ENE) 22:53:03 .
SEEDS 30 Jul 22:48:01 22:50:39 15° 269° (W) 22:53:08 437.485
CUTE 1.7 + AOD 2 30 Jul 22:49:04 22:51:01 12° 271° (W) 22:52:44 437.475
CUBEBUG 1 30 Jul 23:01:34 23:03:20 13° 65° (ENE) 23:05:18 437.445
UNISAT 6 30 Jul 23:04:59 23:07:31 15° 90° (E) 23:10:18 437.425
HUMSAT D 30 Jul 23:06:11 23:10:14 59° 75° (ENE) 23:14:22 437.325/437.525
AUBIESAT-1 30 Jul 23:10:40 23:15:20 54° 104° (ESE) 23:19:52 437.475
DX 1 30 Jul 23:10:52 23:15:02 49° 73° (ENE) 23:19:15 434.975-435.025
DELFI C3 30 Jul 23:14:20 23:18:04 35° 263° (W) 23:21:50 145.870
50 SAT 30 Jul 23:18:21 23:21:53 36° 73° (ENE) 23:25:31 437.505
VELOX 1 30 Jul 23:19:26 23:23:24 34° 71° (ENE) 23:27:25 145.980
AIST 1 30 Jul 23:23:59 23:26:32 16° 70° (ENE) 23:29:14
ESTCUBE 1 30 Jul 23:24:55 23:28:44 28° 70° (ENE) 23:32:39 437.505/2401.250
POPSAT HIP 1 30 Jul 23:38:05 23:38:53 11° 89° (E) 23:39:59 437.405
ZACube-1 30 Jul 23:43:29 23:46:39 20° 268° (W) 23:49:46 437.345
QB50P2 30 Jul 23:44:13 23:46:16 14° 90° (E) 23:48:33 145.880/145.840
SPROUT 30 Jul 23:44:59 23:45:28 10° 64° (ENE) 23:46:12 437.525
TIGRISAT 30 Jul 23:47:33 23:51:58 41° 98° (E) 23:56:25 435.000
ANTELSAT 30 Jul 23:48:37 23:53:05 43° 98° (E) 23:57:36 437.575/2403.000
ISS 30 Jul 23:54:40 23:57:16 21° 335° (NNW) 23:59:51 145.825
PHONESAT 2.4 30 Jul 23:55:04 23:58:34 68° 357° (N) 00:02:04 2401.200-2431.200
BEESAT 2 30 Jul 23:56:33 23:58:48 15° 110° (ESE) 00:01:11 435.950
Cosmos 2491 31 Jul 00:04:24 00:12:43 48° 75° (ENE) 00:21:04 435.465 / 435.565
VERMONT LUNAR 31 Jul 00:07:14 00:10:22 60° 199° (SSW) 00:13:28 437.305
FUNcube-1 31 Jul 00:07:49 00:09:22 11° 272° (W) 00:10:40 145.935
DUCHIFAT 1 31 Jul 00:09:27 00:12:55 25° 95° (E) 00:16:27 145.980
QB50P1 31 Jul 00:11:24 00:15:00 27° 95° (E) 00:18:41 145.935-145.965
NANOSAT C BR1 31 Jul 00:13:15 00:16:54 28° 96° (E) 00:20:35 145.865
M-CUBED/EXP-1 PRIME 31 Jul 00:14:40 00:18:53 30° 295° (WNW) 00:22:57 437.505
AISAT 31 Jul 00:15:57 00:20:16 52° 260° (W) 00:24:34 437.250
RS-15 31 Jul 00:21:31 00:31:59 47° 315° (NW) 00:42:46 29.354- 29.394
UKube-1 31 Jul 00:21:49 00:25:35 28° 264° (W) 00:29:18 .
YUBILEINY 31 Jul 00:26:15 00:33:09 29° 84° (E) 00:40:22 435.215
CUBEBUG 1 31 Jul 00:34:56 00:39:15 59° 259° (W) 00:43:33 437.445
BEESAT 3 31 Jul 00:36:44 00:40:42 55° 118° (ESE) 00:44:43 437.485
UNISAT 6 31 Jul 00:40:05 00:44:39 53° 286° (WNW) 00:49:14 437.425
AUBIESAT-1 31 Jul 00:46:23 00:49:36 18° 299° (WNW) 00:52:38 437.475
DX 1 31 Jul 00:49:20 00:51:37 14° 269° (W) 00:53:43 434.975-435.025
POLYITAN 1 31 Jul 00:53:13 00:57:31 86° 103° (ESE) 01:01:49 437.675
50 SAT 31 Jul 00:54:21 00:56:40 15° 269° (W) 00:58:49 437.505
VELOX 1 31 Jul 00:56:45 01:00:04 20° 267° (W) 01:03:16 145.980
AIST 1 31 Jul 01:00:27 01:04:25 38° 268° (W) 01:08:20
ESTCUBE 1 31 Jul 01:01:44 01:05:35 26° 265° (W) 01:09:22 437.505/2401.250
POPSAT HIP 1 31 Jul 01:11:00 01:15:13 60° 285° (WNW) 01:19:24 437.405
SPROUT 31 Jul 01:16:46 01:21:01 70° 259° (WSW) 01:25:18 437.525
AIST 2 31 Jul 01:17:54 01:21:22 25° 113° (ESE) 01:24:56 435.215
QB50P2 31 Jul 01:18:22 01:22:28 47° 287° (WNW) 01:26:34 145.880/145.840
BUGSAT 1 31 Jul 01:23:09 01:27:12 70° 284° (WNW) 01:31:16 437.445
TIGRISAT 31 Jul 01:25:00 01:28:27 20° 292° (WNW) 01:31:47 435.000
ANTELSAT 31 Jul 01:26:13 01:29:34 19° 293° (WNW) 01:32:47 437.575/2403.000
BEESAT 31 Jul 01:30:50 01:33:58 18° 66° (ENE) 01:37:17 436.000
BEESAT 2 31 Jul 01:32:31 01:36:29 47° 305° (NW) 01:40:30 435.950
PHONESAT 2.4 31 Jul 01:33:07 01:36:38 83° 197° (SSW) 01:40:08 2401.200-2431.200
TISAT 1 31 Jul 01:34:33 01:38:43 71° 259° (W) 01:42:54 437.305
VERMONT LUNAR 31 Jul 01:45:01 01:46:43 14° 213° (SSW) 01:48:20 437.305
DUCHIFAT 1 31 Jul 01:45:07 01:48:41 26° 290° (WNW) 01:52:10 145.980
QB50P1 31 Jul 01:47:19 01:50:47 24° 290° (WNW) 01:54:09 145.935-145.965
NANOSAT C BR1 31 Jul 01:49:12 01:52:37 23° 291° (WNW) 01:55:56 145.865
SWISSCUBE 31 Jul 01:50:02 01:54:10 30° 69° (ENE) 01:58:23 437.505
O/OREOS (USA 219) 31 Jul 01:57:52 02:01:20 23° 103° (ESE) 02:04:55 437.305
Cosmos 2491 31 Jul 02:01:41 02:09:23 35° 273° (W) 02:16:54 435.465 / 435.565
ITUPSAT 1 31 Jul 02:09:50 02:14:22 43° 72° (ENE) 02:18:56 437.325
BEESAT 3 31 Jul 02:16:26 02:19:00 16° 316° (NW) 02:21:28 437.485
YUBILEINY 31 Jul 02:20:57 02:29:30 58° 283° (WNW) 02:38:06 435.215
RS-15 31 Jul 02:40:43 02:48:25 20° 347° (NNW) 02:56:09 29.354- 29.394
ITAMSAT 1 31 Jul 02:45:22 02:46:05 10° 87° (E) 02:47:11 435.822/435.867
KKS-1 31 Jul 02:46:13 02:48:58 17° 66° (ENE) 02:51:51 437.445
AIST 2 31 Jul 02:56:04 02:59:51 30° 309° (NW) 03:03:38 435.215
Oscar 19 31 Jul 03:03:08 03:08:18 70° 102° (ESE) 03:13:28 437.125/150
BEESAT 31 Jul 03:06:52 03:11:29 47° 261° (W) 03:16:08 436.000
ISS 31 Jul 03:10:44 03:12:15 13° 15° (NNE) 03:13:51 145.825
PHONESAT 2.4 31 Jul 03:11:29 03:14:20 23° 210° (SSW) 03:17:09 2401.200-2431.200
JAS-2 31 Jul 03:27:06 03:32:13 19° 87° (E) 03:37:42 435.910
SWISSCUBE 31 Jul 03:27:55 03:32:00 27° 265° (W) 03:36:03 437.505
Cosmos 2504 31 Jul 03:29:14 03:35:56 50° 90° (E) 03:43:09 435.465 / 435.565
O/OREOS (USA 219) 31 Jul 03:36:37 03:40:37 31° 299° (WNW) 03:44:37 437.305
ITUPSAT 1 31 Jul 03:49:01 03:52:29 19° 268° (W) 03:55:48 437.325
Gurwin Techsat 1B 31 Jul 03:51:05 03:56:20 59° 100° (E) 04:01:34 435.225
STARS 31 Jul 03:57:27 04:01:44 58° 74° (ENE) 04:06:02 437.465
KKS-1 31 Jul 04:21:03 04:25:17 44° 261° (W) 04:29:31 437.445
ITAMSAT 1 31 Jul 04:21:09 04:26:21 83° 285° (WNW) 04:31:31 435.822/435.867
Oscar 19 31 Jul 04:44:16 04:47:08 15° 297° (WNW) 04:49:46 437.125/150
ISS 31 Jul 04:46:10 04:49:21 47° 34° (NE) 04:52:30 145.825
RS-15 31 Jul 04:58:08 05:06:38 23° 22° (NNE) 05:15:42 29.354- 29.394
MOZHAYETS 4 31 Jul 05:01:43 05:06:14 54° 74° (ENE) 05:10:48
DANDE 31 Jul 05:04:58 05:07:35 21° 97° (E) 05:09:55 436.750
JAS-2 31 Jul 05:10:15 05:18:08 83° 285° (WNW) 05:25:54 435.910
AO-7 31 Jul 05:11:40 05:19:37 47° 100° (E) 05:27:33 29.400- 29.500
HORYU 2 31 Jul 05:19:04 05:23:30 53° 100° (E) 05:27:54 437.375
Cosmos 2504 31 Jul 05:22:30 05:28:33 28° 291° (WNW) 05:34:46 435.465 / 435.565
Gurwin Techsat 1B 31 Jul 05:32:21 05:35:54 18° 296° (WNW) 05:39:15 435.225
CUSAT 1 31 Jul 05:33:55 05:36:58 69° 280° (W) 05:39:38 437.405
STARS 31 Jul 05:37:04 05:38:38 11° 271° (W) 05:39:56 437.465
ITAMSAT 1 31 Jul 06:04:25 06:05:08 10° 300° (WNW) 06:05:30 435.822/435.867
ISS 31 Jul 06:23:20 06:25:32 17° 229° (SW) 06:27:39 145.825
JUGNU 31 Jul 06:38:56 06:40:23 11° 180° (S) 06:41:50 437.505
MOZHAYETS 4 31 Jul 06:41:22 06:43:52 14° 271° (W) 06:46:08
DANDE 31 Jul 06:49:32 06:50:38 11° 285° (WNW) 06:51:33 436.750
CUBESAT XI-V 31 Jul 06:52:10 06:56:50 68° 75° (ENE) 07:01:29 437.345
STRAND 1 31 Jul 06:52:56 06:56:54 24° 67° (ENE) 07:01:01 437.568
PRISM 31 Jul 06:55:26 06:58:02 17° 67° (ENE) 07:00:46 437.425
HORYU 2 31 Jul 06:57:08 06:59:44 15° 295° (WNW) 07:02:08 437.375
JAS-2 31 Jul 06:57:11 07:02:11 18° 301° (WNW) 07:06:51 435.910
GONETS M04 31 Jul 07:01:55 07:10:26 65° 93° (E) 07:19:02
AO-7 31 Jul 07:04:44 07:12:17 39° 298° (WNW) 07:19:40 29.400- 29.500
RS-15 31 Jul 07:10:45 07:22:20 61° 51° (NE) 07:34:24 29.354- 29.394
CUTE-I 31 Jul 07:19:00 07:23:40 32° 96° (E) 07:28:24 437.470
Cosmos 2499 31 Jul 07:39:57 07:45:14 23° 83° (E) 07:51:06 435.465 / 435.565
Cubesat XI-IV 31 Jul 08:02:12 08:07:34 82° 102° (ESE) 08:12:54 437.490
SRMSAT 31 Jul 08:28:27 08:29:55 11° 180° (S) 08:31:22 437.500
PRISM 31 Jul 08:29:13 08:33:11 40° 261° (W) 08:37:08 437.425
STRAND 1 31 Jul 08:31:05 08:35:54 40° 262° (W) 08:40:44 437.568
CUBESAT XI-V 31 Jul 08:33:15 08:34:49 11° 272° (W) 08:36:03 437.345
BEESAT 3 31 Jul 08:56:33 08:59:54 24° 49° (NE) 09:03:14 437.485
CUTE-I 31 Jul 08:59:03 09:03:43 31° 292° (WNW) 09:08:17 437.470
GONETS M04 31 Jul 09:00:54 09:08:04 26° 293° (WNW) 09:14:56
CANX-2 31 Jul 09:06:36 09:08:43 14° 90° (E) 09:11:03 2200.000
BRITE-PL 31 Jul 09:23:41 09:28:04 76° 102° (ESE) 09:32:45 437.365/2234.400
RS-15 31 Jul 09:23:43 09:34:33 41° 251° (WSW) 09:45:24 29.354- 29.394
PCSat 31 Jul 09:23:50 09:28:05 25° 108° (ESE) 09:32:29 145.827
M-CUBED/EXP-1 PRIME 31 Jul 09:27:04 09:30:30 28° 64° (ENE) 09:34:16 437.505
AAUSAT CUBESAT 2 31 Jul 09:27:58 09:28:39 10° 88° (E) 09:29:38 437.432
Cosmos 2499 31 Jul 09:30:27 09:37:42 62° 282° (WNW) 09:45:33 435.465 / 435.565
DOVE 4 31 Jul 09:34:21 09:38:34 35° 97° (E) 09:43:03 437.250
GOMX 1 31 Jul 09:40:11 09:44:41 67° 101° (E) 09:49:30 467.674
AIST 2 31 Jul 09:40:58 09:43:21 15° 43° (NE) 09:45:50 435.215
Cubesat XI-IV 31 Jul 09:44:34 09:47:03 13° 299° (WNW) 09:49:14 437.490
CINEMA 3 31 Jul 09:52:15 09:56:03 25° 94° (E) 10:00:05 145.822/145.860
BEESAT 2 31 Jul 09:52:24 09:56:28 72° 57° (ENE) 10:00:28 435.950
HO-68 31 Jul 09:54:54 10:01:51 51° 100° (E) 10:08:49 435.675
AUBIESAT-1 31 Jul 09:56:59 10:00:52 53° 69° (ENE) 10:05:06 437.475
UNISAT 6 31 Jul 10:04:38 10:05:52 11° 64° (ENE) 10:07:19 437.425
SO-50 31 Jul 10:13:53 10:18:26 50° 117° (ESE) 10:23:11 436.795
UWE-3 31 Jul 10:17:58 10:20:48 17° 91° (E) 10:23:51 435.000/436.395/437.385
COMPASS 1 31 Jul 10:18:11 10:22:19 51° 99° (E) 10:26:25 437.405
FUNcube-1 31 Jul 10:19:43 10:21:24 12° 89° (E) 10:23:22 145.935
CUBEBUG 2 31 Jul 10:30:19 10:34:19 29° 95° (E) 10:38:27 437.445
SEEDS 31 Jul 10:31:20 10:35:38 85° 283° (WNW) 10:39:52 437.485
CUTE 1.7 + AOD 2 31 Jul 10:32:29 10:36:46 66° 284° (WNW) 10:41:00 437.475
Oscar 11 31 Jul 10:32:52 10:36:34 27° 95° (E) 10:40:20 145.826/435.025
BEESAT 3 31 Jul 10:34:19 10:37:50 28° 246° (WSW) 10:41:15 437.485
YUBILEINY 31 Jul 10:38:56 10:42:00 12° 56° (NE) 10:45:47 435.215
CANX-2 31 Jul 10:40:49 10:44:59 47° 286° (WNW) 10:49:05 2200.000
TIGRISAT 31 Jul 10:45:37 10:49:21 30° 70° (ENE) 10:53:13 435.000
ANTELSAT 31 Jul 10:46:49 10:50:40 32° 71° (ENE) 10:54:38 437.575/2403.000
HUMSAT D 31 Jul 10:53:37 10:54:41 11° 88° (E) 10:56:02 437.325/437.525
DELFI C3 31 Jul 10:54:18 10:57:54 31° 96° (E) 11:01:31 145.870
AAUSAT CUBESAT 2 31 Jul 11:00:34 11:04:43 58° 285° (WNW) 11:08:49 437.432
DUCHIFAT 1 31 Jul 11:01:36 11:04:11 17° 67° (ENE) 11:06:55 145.980
M-CUBED/EXP-1 PRIME 31 Jul 11:02:07 11:05:20 23° 263° (W) 11:08:40 437.505
QB50P1 31 Jul 11:03:47 11:06:37 18° 68° (ENE) 11:09:36 145.935-145.965
NANOSAT C BR1 31 Jul 11:05:23 11:08:16 19° 68° (ENE) 11:11:17 145.865
PCSat 31 Jul 11:06:08 11:11:17 43° 304° (NW) 11:16:27 145.827
DOVE 4 31 Jul 11:12:34 11:16:11 23° 290° (WNW) 11:19:51 437.250
AIST 2 31 Jul 11:18:13 11:22:22 62° 242° (WSW) 11:26:25 435.215
GOMX 1 31 Jul 11:20:34 11:22:27 12° 294° (WNW) 11:24:08 467.674
CINEMA 3 31 Jul 11:29:05 11:33:17 32° 288° (WNW) 11:37:32 145.822/145.860
ZACube-1 31 Jul 11:31:25 11:35:59 80° 101° (E) 11:40:36 437.345
AUBIESAT-1 31 Jul 11:34:21 11:36:05 12° 268° (W) 11:37:38 437.475
